| time (UTC) | temp C | wind direction | speed KPH | gust KPH | rain 1hr cm | rain 24hr cm | rain mn cm | humidity % | barometer mb |
| 20260504024309 | 12 | 90 | 0.0 | 3.2 | 0.00 | 0.89 | 0.00 | 97 | 1007.7 |
| 20260504023304 | 12 | 90 | 0.0 | 3.2 | 0.00 | 0.89 | 0.00 | 97 | 1007.8 |
| 20260504022340 | 12 | 0.0 | 0.0 | 0.00 | 0.89 | 0.00 | 97 | 1007.7 | |
| 20260504021316 | 12 | 53 | 3.2 | 6.4 | 0.00 | 0.89 | 0.00 | 97 | 1007.7 |
| 20260504020252 | 12 | 35 | 1.6 | 3.2 | 0.00 | 0.89 | 0.00 | 97 | 1007.9 |
| 20260504015248 | 12 | 68 | 0.0 | 6.4 | 0.00 | 0.89 | 0.00 | 97 | 1007.7 |
| 20260504014243 | 12 | 23 | 3.2 | 6.4 | 0.00 | 0.89 | 0.00 | 97 | 1007.9 |
| 20260504013239 | 12 | 57 | 1.6 | 6.4 | 0.00 | 0.89 | 0.00 | 97 | 1007.8 |
| 20260504012235 | 12 | 30 | 3.2 | 6.4 | 0.00 | 0.89 | 0.00 | 97 | 1007.7 |
| 20260504011231 | 12 | 13 | 3.2 | 6.4 | 0.00 | 0.89 | 0.00 | 97 | 1007.7 |
| 20260504010227 | 12 | 39 | 4.8 | 6.4 | 0.00 | 0.89 | 0.00 | 97 | 1007.7 |
| 20260504005222 | 12 | 60 | 3.2 | 6.4 | 0.00 | 0.89 | 0.00 | 97 | 1007.7 |
| 20260504004218 | 12 | 83 | 3.2 | 3.2 | 0.00 | 0.89 | 0.00 | 96 | 1007.9 |
| 20260504003314 | 12 | 41 | 4.8 | 6.4 | 0.00 | 0.89 | 0.00 | 96 | 1008.2 |
| 20260504002310 | 12 | 15 | 3.2 | 6.4 | 0.00 | 0.89 | 0.00 | 96 | 1008.2 |
| 20260504001306 | 12 | 33 | 1.6 | 6.4 | 0.00 | 0.89 | 0.00 | 96 | 1008.3 |
| 20260504000301 | 12 | 45 | 1.6 | 3.2 | 0.00 | 0.89 | 0.00 | 96 | 1008.3 |
| 20260503235257 | 12 | 31 | 1.6 | 6.4 | 0.00 | 0.89 | 0.00 | 96 | 1008.3 |
| 20260503234253 | 12 | 23 | 3.2 | 6.4 | 0.00 | 0.89 | 0.00 | 96 | 1008.3 |
| 20260503233249 | 12 | 39 | 4.8 | 6.4 | 0.00 | 0.89 | 0.00 | 96 | 1008.4 |
| 20260503232325 | 12 | 45 | 1.6 | 3.2 | 0.00 | 0.89 | 0.00 | 96 | 1008.4 |
| 20260503231300 | 12 | 83 | 1.6 | 6.4 | 0.00 | 0.89 | 0.00 | 96 | 1008.5 |
| 20260503230316 | 12 | 23 | 3.2 | 6.4 | 0.00 | 0.89 | 0.00 | 96 | 1008.5 |
| 20260503225232 | 12 | 41 | 1.6 | 6.4 | 0.00 | 0.89 | 0.00 | 95 | 1008.5 |
| 20260503224228 | 12 | 32 | 4.8 | 9.7 | 0.00 | 0.89 | 0.00 | 95 | 1008.5 |
| 20260503223224 | 12 | 69 | 3.2 | 3.2 | 0.00 | 0.89 | 0.00 | 95 | 1008.6 |
| 20260503222220 | 12 | 46 | 3.2 | 6.4 | 0.00 | 0.89 | 0.00 | 95 | 1008.7 |
| 20260503221215 | 12 | 37 | 3.2 | 6.4 | 0.00 | 0.89 | 0.00 | 95 | 1008.8 |
| 20260503220311 | 12 | 23 | 3.2 | 3.2 | 0.00 | 0.89 | 0.00 | 95 | 1008.6 |
| 20260503215307 | 12 | 45 | 3.2 | 6.4 | 0.00 | 0.89 | 0.89 | 95 | 1008.8 |
| 20260503214302 | 12 | 37 | 4.8 | 9.7 | 0.00 | 0.89 | 0.89 | 95 | 1008.7 |
| 20260503213258 | 12 | 23 | 6.4 | 9.7 | 0.00 | 0.89 | 0.89 | 94 | 1008.7 |
| 20260503212254 | 12 | 49 | 4.8 | 6.4 | 0.00 | 0.89 | 0.89 | 94 | 1008.7 |
| 20260503211249 | 12 | 45 | 3.2 | 3.2 | 0.00 | 0.89 | 0.89 | 94 | 1008.5 |
| 20260503210245 | 13 | 68 | 4.8 | 9.7 | 0.00 | 0.89 | 0.89 | 94 | 1008.6 |
| 20260503205321 | 13 | 58 | 4.8 | 6.4 | 0.00 | 0.89 | 0.89 | 94 | 1008.4 |
| 20260503204236 | 13 | 68 | 4.8 | 9.7 | 0.00 | 0.89 | 0.89 | 94 | 1008.5 |
| 20260503203232 | 13 | 54 | 4.8 | 6.4 | 0.00 | 0.89 | 0.89 | 94 | 1008.3 |
| 20260503202228 | 13 | 61 | 6.4 | 9.7 | 0.00 | 0.89 | 0.89 | 94 | 1008.1 |
| 20260503201224 | 13 | 101 | 3.2 | 6.4 | 0.00 | 0.89 | 0.89 | 94 | 1008.0 |
| 20260503200219 | 13 | 89 | 6.4 | 12.9 | 0.00 | 0.89 | 0.89 | 93 | 1007.9 |
| 20260503195215 | 13 | 107 | 4.8 | 9.7 | 0.00 | 0.89 | 0.89 | 93 | 1007.7 |
| 20260503194311 | 13 | 32 | 4.8 | 9.7 | 0.00 | 0.89 | 0.89 | 93 | 1007.7 |
| 20260503193307 | 13 | 62 | 4.8 | 6.4 | 0.00 | 0.89 | 0.89 | 93 | 1007.5 |
| 20260503192305 | 14 | 34 | 4.8 | 9.7 | 0.00 | 0.89 | 0.89 | 93 | 1007.4 |
| 20260503191318 | 14 | 73 | 4.8 | 9.7 | 0.00 | 0.89 | 0.89 | 93 | 1007.4 |
| 20260503190254 | 14 | 98 | 3.2 | 6.4 | 0.00 | 0.89 | 0.89 | 92 | 1007.3 |
| 20260503185250 | 14 | 68 | 3.2 | 6.4 | 0.00 | 0.89 | 0.89 | 91 | 1007.1 |
| 20260503184306 | 15 | 60 | 6.4 | 9.7 | 0.00 | 0.89 | 0.89 | 90 | 1007.2 |
| 20260503183242 | 15 | 45 | 6.4 | 9.7 | 0.00 | 0.89 | 0.89 | 90 | 1007.1 |
| 20260503182237 | 15 | 75 | 3.2 | 6.4 | 0.00 | 0.89 | 0.89 | 89 | 1006.9 |
| 20260503181233 | 15 | 83 | 3.2 | 6.4 | 0.00 | 0.89 | 0.89 | 89 | 1007.0 |
| 20260503180249 | 16 | 113 | 4.8 | 9.7 | 0.00 | 0.89 | 0.89 | 87 | 1006.9 |
| 20260503175224 | 16 | 30 | 1.6 | 6.4 | 0.00 | 0.89 | 0.89 | 86 | 1006.8 |
| 20260503174220 | 16 | 75 | 4.8 | 9.7 | 0.00 | 0.89 | 0.89 | 85 | 1006.8 |
| 20260503173236 | 16 | 101 | 4.8 | 6.4 | 0.00 | 0.89 | 0.89 | 86 | 1006.7 |
| 20260503172332 | 17 | 30 | 3.2 | 9.7 | 0.00 | 0.89 | 0.89 | 86 | 1006.7 |
| 20260503171307 | 16 | 44 | 6.4 | 11.3 | 0.00 | 0.89 | 0.89 | 87 | 1006.8 |
| 20260503170343 | 16 | 83 | 6.4 | 11.3 | 0.00 | 0.89 | 0.89 | 88 | 1006.7 |
| 20260503150313 | 16 | 97 | 6.4 | 14.5 | 0.00 | 0.48 | 0.48 | 87 | 1007.3 |
| 20260503140247 | 16 | 46 | 3.2 | 6.4 | 0.00 | 0.48 | 0.48 | 88 | 1008.0 |
| 20260503131226 | 16 | 0.0 | 0.0 | 0.00 | 0.48 | 0.48 | 90 | 1008.7 | |
| 20260503130222 | 15 | 0.0 | 0.0 | 0.03 | 0.48 | 0.48 | 90 | 1009.0 | |
| 20260503110232 | 15 | 107 | 8.0 | 12.9 | 0.05 | 0.23 | 0.23 | 92 | 1009.4 |
| 20260503090300 | 15 | 90 | 4.8 | 6.4 | 0.00 | 0.00 | 0.00 | 88 | 1009.8 |
| 20260503081219 | 15 | 68 | 3.2 | 6.4 | 0.00 | 0.00 | 0.00 | 87 | 1010.0 |
| 20260503080315 | 15 | 45 | 3.2 | 6.4 | 0.00 | 0.00 | 0.00 | 87 | 1009.9 |
| 20260503072318 | 15 | 68 | 1.6 | 3.2 | 0.00 | 0.00 | 0.00 | 87 | 1010.1 |
| 20260503071254 | 14 | 68 | 0.0 | 3.2 | 0.00 | 0.00 | 0.00 | 88 | 1009.8 |
| 20260503070250 | 14 | 68 | 1.6 | 3.2 | 0.00 | 0.00 | 0.00 | 89 | 1009.8 |
| 20260503060224 | 13 | 68 | 0.0 | 3.2 | 0.00 | 0.00 | 0.00 | 90 | 1009.9 |
| 20260503054215 | 13 | 68 | 1.6 | 3.2 | 0.00 | 0.00 | 0.00 | 91 | 1009.9 |
| 20260503053311 | 13 | 75 | 1.6 | 3.2 | 0.00 | 0.00 | 0.00 | 91 | 1010.0 |
| 20260503052307 | 13 | 90 | 1.6 | 3.2 | 0.00 | 0.00 | 0.00 | 91 | 1009.9 |
| 20260503051302 | 13 | 90 | 1.6 | 3.2 | 0.00 | 0.00 | 0.00 | 91 | 1009.8 |
| 20260503050258 | 13 | 90 | 0.0 | 3.2 | 0.00 | 0.00 | 0.00 | 91 | 1009.6 |
| 20260503045254 | 13 | 90 | 3.2 | 6.4 | 0.00 | 0.00 | 0.00 | 91 | 1009.6 |
| 20260503044250 | 13 | 83 | 1.6 | 6.4 | 0.00 | 0.00 | 0.00 | 91 | 1009.8 |
| 20260503043245 | 13 | 75 | 3.2 | 3.2 | 0.00 | 0.00 | 0.00 | 91 | 1009.7 |
| 20260503042241 | 13 | 82 | 3.2 | 6.4 | 0.00 | 0.00 | 0.00 | 91 | 1010.0 |
| 20260503041257 | 13 | 86 | 1.6 | 6.4 | 0.00 | 0.00 | 0.00 | 91 | 1009.9 |
| 20260503040233 | 13 | 58 | 3.2 | 6.4 | 0.00 | 0.00 | 0.00 | 91 | 1009.8 |
| 20260503035229 | 13 | 38 | 1.6 | 3.2 | 0.00 | 0.00 | 0.00 | 91 | 1009.7 |
| 20260503034245 | 13 | 69 | 3.2 | 6.4 | 0.00 | 0.00 | 0.00 | 91 | 1009.8 |
| 20260503033220 | 13 | 44 | 4.8 | 6.4 | 0.00 | 0.00 | 0.00 | 91 | 1009.8 |
| 20260503032216 | 13 | 14 | 1.6 | 6.4 | 0.00 | 0.00 | 0.00 | 90 | 1009.8 |
| 20260503031312 | 13 | 68 | 3.2 | 6.4 | 0.00 | 0.00 | 0.00 | 90 | 1009.8 |
| 20260503030327 | 13 | 56 | 3.2 | 6.4 | 0.00 | 0.00 | 0.00 | 90 | 1009.9 |
| 20260503025323 | 13 | 90 | 3.2 | 6.4 | 0.00 | 0.00 | 0.00 | 90 | 1010.0 |